Meteor 1-24 Rocket - Orbit

View from above orbital plane
View from above orbital plane
View from above satellite
View from above satellite

Ground track
Ground track

The orbit data is extracted from the following two-line orbital elements,

1 08800U 76032B   13137.19032932 -.00000099  00000-0 -61604-4 0  7469
2 08800 081.2521 228.5443 0094968 089.0230 334.6326 14.09875955907931
Epoch (UTC): 17 May 2013 04:34:04
Eccentricity: 0.0094968
inclination: 81.2521°
perigee height: 791 km
apogee height: 928 km
right ascension of ascending node: 228.5443°
argument of perigee: 89.0230°
revolutions per day: 14.09875955
mean anomaly at epoch: 334.6326°
orbit number at epoch: 90793

The dashed part of the orbit path shows where the satellite is in the earth's shadow,  

Developed and maintained by Chris Peat, Heavens-Above GmbH. Please read the updated FAQ before sending e-mail. Imprint. DLR